Weather History for Watford City, ND

Change the Weather History Date:

Friday, November 11, 2011

  Actual Average (KISN) Record (KISN)
Temperature  
Mean Temperature 42 °F 30 °F  
Max Temperature 55 °F 41 °F 63 °F (1999)
Min Temperature 30 °F 19 °F -10 °F (1940)
Degree Days  
Heating Degree Days 22 35  
Month to date heating degree days 357  
Since 1 July heating degree days 1384  
Cooling Degree Days 0 0  
Month to date cooling degree days 0  
Year to date cooling degree days 456  
Moisture  
Dew Point 21 °F    
Average Humidity 52    
Maximum Humidity 69    
Minimum Humidity 23    
Precipitation  
Precipitation 0.00 in 0.02 in 0.25 in (1975)
Month to date precipitation 0.28  
Year to date precipitation 13.38  
Sea Level Pressure  
Sea Level Pressure 29.51 in    
Wind  
Wind Speed 8 mph (WSW)    
Max Wind Speed 15 mph    
Max Gust Speed 21 mph    
Visibility 9 miles    
Events      
T = Trace of Precipitation, MM = Missing Value Source: NWS Daily Summary

Daily Weather History Graph

Daily Weather History Graph

Search for Another Location

Airport:

Trip Planner

Search our weather history database for the weather conditions in past years. The results will help you decide how hot, cold, wet, or windy it might be!

Date:

Astronomy

Nov. 11, 2011 Rise Set
Actual Time 7:52 AM CST 5:21 PM CST
Civil Twilight 7:19 AM CST 5:54 PM CST
Nautical Twilight 6:41 AM CST 6:31 PM CST
Astronomical Twilight 6:05 AM CST 7:07 PM CST
Moon 5:44 PM CST (11/11) 8:49 AM CST (11/11)
Length of Visible Light 10h 35m
Length of Day
9h 28m
Full, 99% of the Moon is Illuminated
Nov 11
Full
Nov 18
Last Quarter
Nov 25
New
Dec 2
First Quarter
Dec 10
Full

Hourly Weather History & Observations

Time (CST) Temp. Windchill Dew Point Humidity Pressure Visibility Wind Dir Wind Speed Gust Speed Precip Events Conditions
12:15 AM 35.6 °F 30.7 °F 23.0 °F 60% 29.60 in 10.0 mi West 5.8 mph - N/A   Clear
12:35 AM 35.6 °F 29.9 °F 23.0 °F 60% 29.60 in 10.0 mi WSW 6.9 mph - N/A   Clear
12:55 AM 33.8 °F 28.6 °F 23.0 °F 65% 29.60 in 10.0 mi WSW 5.8 mph - N/A   Clear
1:15 AM 32.0 °F 25.6 °F 23.0 °F 69% 29.60 in 10.0 mi WSW 6.9 mph - N/A   Clear
1:35 AM 32.0 °F 25.6 °F 23.0 °F 69% 29.60 in 10.0 mi WSW 6.9 mph - N/A   Clear
1:55 AM 35.6 °F 28.6 °F 23.0 °F 60% 29.60 in 10.0 mi West 9.2 mph - N/A   Clear
2:15 AM 35.6 °F 27.5 °F 23.0 °F 60% 29.60 in 10.0 mi West 11.5 mph - N/A   Clear
2:35 AM 35.6 °F 27.5 °F 23.0 °F 60% 29.60 in 10.0 mi West 11.5 mph - N/A   Clear
3:15 AM 35.6 °F 28.6 °F 23.0 °F 60% 29.60 in 10.0 mi WSW 9.2 mph - N/A   Clear
3:35 AM 35.6 °F 26.6 °F 23.0 °F 60% 29.60 in 10.0 mi West 13.8 mph - N/A   Clear
3:55 AM 35.6 °F 27.5 °F 23.0 °F 60% 29.61 in 10.0 mi West 11.5 mph - N/A   Clear
4:35 AM 35.6 °F 29.9 °F 23.0 °F 60% 29.61 in 10.0 mi WSW 6.9 mph - N/A   Clear
5:15 AM 32.0 °F 28.7 °F 23.0 °F 69% 29.61 in 10.0 mi South 3.5 mph - N/A   Clear
5:35 AM 35.6 °F 28.6 °F 23.0 °F 60% 29.61 in 10.0 mi WSW 9.2 mph - N/A   Clear
6:15 AM 35.6 °F 26.6 °F 23.0 °F 60% 29.60 in 10.0 mi West 13.8 mph - N/A   Clear
6:35 AM 33.8 °F 25.3 °F 23.0 °F 65% 29.60 in 10.0 mi WSW 11.5 mph 17.3 mph N/A   Clear
6:55 AM 32.0 °F 24.2 °F 23.0 °F 69% 29.61 in 10.0 mi WSW 9.2 mph - N/A   Clear
7:15 AM 32.0 °F 26.4 °F 23.0 °F 69% 29.61 in 10.0 mi SW 5.8 mph - N/A   Clear
7:35 AM 32.0 °F 24.8 °F 23.0 °F 69% 29.61 in 10.0 mi SW 8.1 mph - N/A   Clear
7:55 AM 32.0 °F - 23.0 °F 69% 29.61 in 10.0 mi Calm Calm - N/A   Clear
8:15 AM 32.0 °F 25.6 °F 23.0 °F 69% 29.61 in 10.0 mi SSW 6.9 mph - N/A   Clear
8:35 AM 32.0 °F 24.8 °F 23.0 °F 69% 29.61 in 10.0 mi SSW 8.1 mph - N/A   Clear
9:15 AM 35.6 °F 28.0 °F 24.8 °F 65% 29.61 in 10.0 mi SW 10.4 mph - N/A   Clear
9:35 AM 37.4 °F 29.3 °F 24.8 °F 60% 29.61 in 10.0 mi WSW 12.7 mph - N/A   Clear
9:55 AM 39.2 °F 32.5 °F 24.8 °F 56% 29.60 in 10.0 mi WSW 10.4 mph - N/A   Clear
10:15 AM 39.2 °F 32.5 °F 24.8 °F 56% 29.60 in 10.0 mi WSW 10.4 mph - N/A   Clear
10:35 AM 39.2 °F 34.2 °F 24.8 °F 56% 29.60 in 10.0 mi SW 6.9 mph - N/A   Clear
10:55 AM 42.8 °F 38.0 °F 24.8 °F 49% 29.59 in 10.0 mi WSW 8.1 mph - N/A   Clear
11:15 AM 46.4 °F 41.5 °F 24.8 °F 43% 29.58 in 10.0 mi WSW 10.4 mph 18.4 mph N/A   Clear
11:35 AM 46.4 °F 41.5 °F 24.8 °F 43% 29.57 in 10.0 mi West 10.4 mph - N/A   Clear
11:55 AM 48.2 °F - 24.8 °F 40% 29.56 in 10.0 mi WSW 10.4 mph - N/A   Clear
12:35 PM 50.0 °F - 23.0 °F 35% 29.54 in 10.0 mi West 11.5 mph 17.3 mph N/A   Clear
1:15 PM 53.6 °F - 21.2 °F 28% 29.52 in 10.0 mi WSW 9.2 mph 17.3 mph N/A   Clear
1:35 PM 53.6 °F - 19.4 °F 26% 29.51 in 10.0 mi WSW 11.5 mph - N/A   Clear
1:55 PM 55.4 °F - 19.4 °F 25% 29.51 in 10.0 mi WSW 12.7 mph - N/A   Clear
2:15 PM 55.4 °F - 19.4 °F 25% 29.49 in 10.0 mi WSW 13.8 mph 20.7 mph N/A   Clear
2:35 PM 55.4 °F - 17.6 °F 23% 29.48 in 10.0 mi WSW 13.8 mph - N/A   Clear
2:55 PM 55.4 °F - 17.6 °F 23% 29.48 in 10.0 mi WSW 10.4 mph 19.6 mph N/A   Clear
3:15 PM 55.4 °F - 19.4 °F 25% 29.47 in 10.0 mi WSW 13.8 mph 17.3 mph N/A   Clear
3:35 PM 55.4 °F - 17.6 °F 23% 29.46 in 10.0 mi WSW 15.0 mph 19.6 mph N/A   Clear
3:55 PM 55.4 °F - 19.4 °F 25% 29.46 in 10.0 mi SW 13.8 mph - N/A   Clear
4:15 PM 53.6 °F - 19.4 °F 26% 29.46 in 10.0 mi SW 9.2 mph - N/A   Clear
4:35 PM 50.0 °F - 19.4 °F 30% 29.46 in 10.0 mi WSW 8.1 mph - N/A   Clear
4:55 PM 46.4 °F 42.9 °F 19.4 °F 34% 29.46 in 6.0 mi SW 6.9 mph - N/A   Haze
5:15 PM 42.8 °F - 17.6 °F 36% 29.45 in 3.0 mi Calm Calm - N/A   Haze
5:35 PM 39.2 °F 37.0 °F 19.4 °F 45% 29.45 in 3.0 mi SW 3.5 mph - N/A   Haze
5:55 PM 39.2 °F - 17.6 °F 42% 29.44 in 2.5 mi Calm Calm - N/A   Haze
6:15 PM 35.6 °F 32.8 °F 17.6 °F 48% 29.43 in 2.0 mi SW 3.5 mph - N/A   Haze
6:35 PM 35.6 °F 32.8 °F 17.6 °F 48% 29.43 in 4.0 mi SSW 3.5 mph - N/A   Haze
6:55 PM 35.6 °F 31.7 °F 17.6 °F 48% 29.42 in 3.0 mi SW 4.6 mph - N/A   Haze
7:15 PM 35.6 °F 31.7 °F 17.6 °F 48% 29.41 in 10.0 mi WSW 4.6 mph - N/A   Clear
7:35 PM 32.0 °F 27.5 °F 17.6 °F 55% 29.41 in 10.0 mi WSW 4.6 mph - N/A   Clear
7:55 PM 32.0 °F 26.4 °F 17.6 °F 55% 29.41 in 10.0 mi WSW 5.8 mph - N/A   Clear
8:15 PM 30.2 °F 25.4 °F 19.4 °F 64% 29.40 in 10.0 mi WSW 4.6 mph - N/A   Clear
8:35 PM 32.0 °F 25.6 °F 19.4 °F 60% 29.39 in 10.0 mi WSW 6.9 mph - N/A   Clear
8:55 PM 32.0 °F 25.6 °F 19.4 °F 60% 29.39 in 10.0 mi WSW 6.9 mph - N/A   Clear
9:15 PM 32.0 °F 25.6 °F 19.4 °F 60% 29.38 in 10.0 mi SW 6.9 mph - N/A   Clear
9:35 PM 30.2 °F 23.4 °F 19.4 °F 64% 29.38 in 10.0 mi WSW 6.9 mph - N/A   Clear
9:55 PM 30.2 °F 23.4 °F 19.4 °F 64% 29.37 in 10.0 mi SSW 6.9 mph - N/A   Clear
10:15 PM 32.0 °F 26.4 °F 19.4 °F 60% 29.37 in 10.0 mi WSW 5.8 mph - N/A   Clear
10:35 PM 30.2 °F 23.4 °F 19.4 °F 64% 29.36 in 10.0 mi SW 6.9 mph - N/A   Clear
10:55 PM 32.0 °F 24.8 °F 19.4 °F 60% 29.36 in 10.0 mi WSW 8.1 mph - N/A   Clear
11:15 PM 30.2 °F 26.7 °F 19.4 °F 64% 29.35 in 10.0 mi WSW 3.5 mph - N/A   Clear
11:35 PM 32.0 °F - 19.4 °F 60% 29.34 in 10.0 mi Calm Calm - N/A   Clear
11:55 PM 32.0 °F 27.5 °F 19.4 °F 60% 29.34 in 10.0 mi SW 4.6 mph - N/A   Clear